C/2023 C2 ( ATLAS )

Japanese version
Home page
Updated on April 13, 2024

---------------------------------------------------------------------

* Profile

Discovery Date February 1, 2023
Magnitude 19.1 mag
Discoverer Asteroid Terrestrial-Impact Last Alert System (ATLAS) search program

* Pictures

* Orbital Elements

Epoch 2024 Mar. 31.0 TT = JDT 2460400.5
T 2024 Nov. 16.81448 TT                                 Rudenko
q   2.3684284            (2000.0)            P               Q
z  +0.0003046      Peri.  357.45745     +0.48937551     +0.59226561
 +/-0.0000043      Node   301.00865     -0.78635529     -0.01765324
e   0.9992787      Incl.   48.31690     -0.37703710     +0.80554939
>From 238 observations 2023 Feb. 1-2024 Mar. 19, mean residual 0".6.

* Finding Charts

* Magnitudes Graph

        m1 = 7.0 + 5 log d + 10.0 log r

---------------------------------------------------------------------

The orbital elements are published on M.P.E.C. 2024-F34.
The charts are made with StellaNavigator Ver.11 (AstroArts).
The magnitudes graphs are made with Comet for Windows.

---------------------------------------------------------------------

Copyright(C) Seiichi Yoshida (comet@aerith.net). All rights reserved.